Location: Autingues
(50.8400°N, 1.9737°E)
Time: 11:36:22
(UTC+00:00)

Daily predictions for brighter satellites

Satellite Brightness Start Highest point End
(mag) Time Altitude Azimuth Time Altitude Azimuth Time Altitude Azimuth
Ariane Rocket 3.4 20:14:35 10° S 20:19:37 67° WSW 20:24:42 10° NNW
GEOS 3 Rocket 4.2 20:15:13 10° NE 20:20:26 66° NW 20:25:31 10° WSW
SL-16 R/B 2.7 20:16:33 10° NNW 20:22:07 50° NE 20:27:37 10° SE
CZ-4C R/B 4.4 20:20:35 10° WNW 20:25:33 30° NNW 20:31:26 10° NE
Cosmos 1782 3.9 20:22:38 10° N 20:26:14 30° ENE 20:29:48 10° SE
Cosmos 371 Rocket 3.4 20:22:06 10° NNW 20:26:56 77° WSW 20:31:44 10° SSE
ARIANE 5 R/B 3.4 20:27:16 10° SE 20:31:23 38° ENE 20:35:30 10° N
Cosmos 1271 Rocket 3.2 20:29:00 10° N 20:32:53 47° ENE 20:36:44 10° SSE
USA 276 2.4 20:32:30 10° W 20:35:35 51° SSW 20:38:32 11° ESE
NOSS 3-4 (A) 4.5 20:30:44 10° WSW 20:36:31 52° NW 20:42:52 10° NE
NOSS 3-4 (C) 4.5 20:30:50 10° WSW 20:36:37 52° NW 20:42:58 10° NE
BREEZE-M DEB (TANK) 2.8 20:34:06 10° W 20:36:50 43° SSW 20:43:02 10° SE
SPOT 1/Viking Rocket 3.6 20:32:21 10° SSE 20:37:32 79° ENE 20:42:47 10° NNW
Cosmos 1076 Rocket 3.6 20:34:56 10° S 20:39:17 85° W 20:43:41 10° N
Cosmos 1151 Rocket 3.9 20:35:50 10° N 20:39:51 35° ENE 20:43:40 11° SE
ATLAS 5 CENTAUR R/B 3.9 20:36:35 10° NW 20:40:39 24° NNE 20:45:17 10° ENE
OBJECT-B 3.9 20:40:56 10° WSW 20:42:13 12° W 20:43:29 10° WNW
ATLAS 2AS CENTAUR R/B 3.3 20:37:22 10° SW 20:45:18 75° NW 20:52:58 10° NE
ATLAS 3B R/B 3.4 20:42:19 10° NW 20:49:10 54° WSW 20:56:17 10° SSE
Cosmos 1833 Rocket 4.2 20:44:58 10° WSW 20:50:18 42° NW 20:55:39 10° NNE
Terra 2.7 20:47:56 12° SE 20:52:00 37° ENE 20:56:23 10° N
SPOT 5 3.0 20:50:48 12° SE 20:54:35 49° ENE 20:58:52 10° N
Cosmos 2082 Rocket 2.7 20:51:13 10° SW 20:56:49 64° WNW 21:02:29 10° NNE
Cosmos 1092 Rocket 4.0 20:51:06 10° S 20:57:18 72° E 21:03:37 10° NNE
Meteor 2-19 Rocket 4.4 20:51:22 10° S 20:57:25 81° E 21:03:30 10° NNE
Cosmos 2056 Rocket 4.2 20:52:33 10° NNW 20:57:44 46° ENE 21:02:09 14° SE
Cosmos 1633 3.8 20:55:13 10° SSW 20:58:40 43° WNW 21:02:09 10° N
BREEZE-M DEB (TANK) 1.8 20:59:31 10° WSW 21:01:57 45° S 21:03:12 17° E
Cosmos 332 Rocket 4.2 20:59:25 10° NNW 21:04:14 60° WSW 21:08:58 10° S
ERS-1 Rocket 3.1 21:00:35 13° SSE 21:05:01 65° ENE 21:10:01 10° N
Cosmos 2360 Rocket 2.7 21:00:00 10° NNW 21:05:29 50° NE 21:10:08 14° SE
SL-27 R/B 4.3 21:06:23 15° ESE 21:07:13 16° E 21:09:29 10° ENE
NOSS 2-1 (D) 4.5 21:08:18 16° ESE 21:08:18 16° ESE 21:10:26 10° ENE
Cosmos 158 Rocket 4.0 21:03:13 10° SSW 21:08:23 86° ESE 21:13:44 10° NNE
Cosmos 2026 Rocket 4.0 21:03:59 10° S 21:10:17 73° E 21:16:32 10° NNE
GP-B 3.1 21:07:26 10° N 21:11:55 81° E 21:16:14 11° S
ISS -2.0 21:11:37 10° W 21:14:15 21° SW 21:15:56 15° S
Cosmos 2333 Rocket 3.3 21:10:44 10° NNW 21:15:55 35° NE 21:20:38 12° ESE
Cosmos 1371 Rocket 4.1 21:13:57 10° NNW 21:19:21 71° ENE 21:23:22 18° SE
Spot 2 Rocket 3.7 21:14:48 11° S 21:19:39 72° WSW 21:24:47 10° NNW
Cosmos 1812 2.9 21:16:49 10° N 21:20:39 56° ENE 21:23:04 21° SSE
Cosmos 220 Rocket 4.0 21:18:28 10° NNW 21:22:50 81° ENE 21:25:50 20° SSE
Cosmos 2112 Rocket 4.3 21:18:03 10° S 21:23:09 49° ESE 21:28:14 10° NNE
Cosmos 1680 Rocket 3.6 21:18:28 10° S 21:23:37 57° ESE 21:28:47 10° NNE
CZ-2C R/B 3.9 21:19:19 10° N 21:23:52 71° WNW 21:28:18 10° SSW
Cosmos 1980 Rocket 4.2 21:22:08 10° NW 21:26:14 21° W 21:30:21 10° SSW
Okean 3 Rocket 3.6 21:24:58 14° S 21:28:45 67° E 21:33:15 10° NNE
Cosmos 292 Rocket 4.3 21:25:56 10° NNW 21:30:35 49° ENE 21:33:40 20° SE
USA 234 3.7 21:24:18 10° E 21:30:45 63° NNE 21:37:13 10° WNW
Cosmos 2237 Rocket 4.3 21:32:01 10° NNW 21:36:03 19° NE 21:40:04 10° E
Cosmos 2322 Rocket 2.4 21:32:09 10° NNW 21:37:46 68° WSW 21:41:46 19° SSE
Resurs 01 Rocket 4.1 21:39:09 10° SW 21:42:06 17° W 21:45:04 10° NW
Cosmos 1408 Rocket 3.8 21:40:12 23° SSE 21:42:38 50° E 21:46:50 10° NNE
Gblst 52 Del rocket 4.5 21:42:30 10° W 21:48:30 87° N 21:55:26 10° E
Meteor 2-14 Rocket 4.4 21:43:59 14° S 21:49:20 78° E 21:55:30 10° NNE
Cosmos 1553 Rocket 4.0 21:44:52 10° NNW 21:50:57 78° W 21:55:36 18° S
Cosmos 2084 3.5 21:48:52 15° SSW 21:52:03 48° SE 21:56:05 10° NE
Gbstr 26 Del rocket 4.0 21:51:10 10° W 21:54:22 26° SW 21:55:27 23° S
CZ-4B DEB 4.2 21:53:29 34° S 21:54:42 78° WSW 21:57:53 10° NNW
Cosmos 2266 Rocket 4.2 21:53:29 22° SSE 21:57:19 54° E 22:03:23 10° NNE
Cosmos 1862 3.2 21:57:03 24° S 21:59:24 87° E 22:03:24 10° N
Cosmos 2219 Rocket 2.6 21:53:56 10° NNW 21:59:26 53° NE 22:02:58 22° ESE
Cosmos 1624 Rocket 4.2 21:54:39 10° NNW 21:59:49 65° WSW 22:02:57 24° S
Cosmos 2228 Rocket 3.6 21:59:57 10° N 22:04:12 45° ENE 22:06:05 28° SE
Cosmos 1515 Rocket 3.6 21:59:57 10° NNW 22:04:25 81° W 22:06:43 28° S
H-2A R/B 3.5 22:01:01 10° NNE 22:05:11 67° ESE 22:07:15 29° S
SL-16 R/B 3.4 22:00:59 10° NW 22:06:03 34° WSW 22:09:55 16° SSW
NOSS 2-1 (E) 2.9 22:05:22 40° S 22:06:09 51° SE 22:09:33 10° NE
ARIANE 5 R/B 4.2 22:04:24 12° SSW 22:07:55 29° W 22:11:50 10° NW
NOSS 3-1 (C) 4.0 22:01:11 10° NW 22:08:28 88° NE 22:14:30 22° SE
Cosmos 2333 4.2 22:03:26 10° NNW 22:09:05 81° ENE 22:12:13 27° SE
Cosmos 1420 Rocket 4.1 22:05:31 10° NNW 22:10:52 77° WSW 22:13:43 28° SSE
USA 276 4.3 22:09:19 10° WSW 22:10:46 15° SW 22:10:46 15° SW
COSMOS 2455 3.5 22:09:10 26° SSE 22:11:28 35° ESE 22:16:52 10° NE
COSMOS 2428 3.1 22:08:33 10° NNW 22:14:11 56° NE 22:17:35 24° SE
CZ-4C R/B 4.5 22:10:33 10° NW 22:15:59 29° NNE 22:22:21 10° ENE
Cosmos 1655 Rocket 4.0 22:12:44 21° S 22:17:10 81° E 22:23:36 10° NNE
S3M 4.2 22:14:52 10° NNW 22:21:13 70° W 22:25:25 23° S
USA 229 DEB 4.0 22:15:28 10° NW 22:22:43 75° NE 22:28:16 21° SE
USA 229 4.0 22:15:34 10° NW 22:22:49 75° NE 22:28:23 20° SE
Spot 4 4.2 22:21:45 30° SE 22:23:56 56° ENE 22:28:40 10° N
ATLAS 5 CENTAUR R/B 2.6 22:20:59 10° NW 22:26:12 60° NE 22:30:39 19° ESE
Cosmos 1174 3.4 22:23:23 10° NW 22:26:19 48° SW 22:26:29 48° SW
Terra 3.1 22:26:49 17° SSW 22:29:47 33° W 22:34:07 10° NNW
Cosmos 1452 Rocket 3.5 22:25:07 10° NNW 22:30:24 85° ENE 22:32:49 33° SSE
Cosmos 1707 Rocket 4.4 22:26:43 10° N 22:30:49 39° ENE 22:32:18 29° ESE
COSMOS 2487 3.0 22:31:49 38° E 22:31:49 38° E 22:34:50 10° NE
ALOS 2 3.4 22:33:57 29° ESE 22:35:37 41° ENE 22:39:46 10° N
USA 267 3.3 22:31:42 10° ENE 22:38:07 55° SE 22:44:31 10° SW
Meteor 1-27 Rocket 3.9 22:35:45 10° NNW 22:41:20 69° W 22:44:15 30° S
SL-27 R/B 3.4 22:39:50 22° SW 22:41:54 47° WNW 22:45:25 10° NNE
NOSS 3-1 (A) 4.0 22:35:51 10° NW 22:43:10 89° NE 22:48:48 24° SE
Cosmos 2360 Rocket 3.3 22:44:18 10° NW 22:49:19 34° WSW 22:51:53 23° SSW
IRIDIUM 104 4.4 22:44:41 10° N 22:49:56 73° W 22:52:18 33° SSW
NOSS 2-1 (C) 3.6 22:48:04 15° WSW 22:50:33 53° NW 22:54:01 10° NE
Cosmos 1805 Rocket 3.5 22:49:13 43° S 22:50:37 78° E 22:55:05 10° NNE
Cosmos 1110 Rocket 4.1 22:51:06 10° NNW 22:56:28 77° ENE 22:58:40 36° SE
Meteor 1-20 Rocket 4.2 22:54:51 36° S 22:57:11 68° E 23:02:51 10° NNE
Cosmos 1980 4.3 22:52:29 10° NNW 22:58:02 51° NE 23:01:19 23° ESE
NOSS 2-1 (D) 3.9 22:55:30 13° WSW 22:58:17 46° NW 23:01:44 10° NE
Cosmos 2333 Rocket 2.5 22:54:57 10° NW 23:00:26 53° WSW 23:02:38 34° S
Cosmos 1500 Rocket 4.3 22:59:40 26° SW 23:01:50 49° WNW 23:06:11 10° N
Cosmos 1331 Rocket 4.0 22:56:37 10° NNW 23:01:54 77° ENE 23:03:58 37° SE
Cosmos 972 Rocket 4.0 23:07:28 29° SSW 23:10:12 78° WNW 23:15:13 10° NNE
Cosmos 2322 4.2 23:05:09 10° NW 23:10:37 48° WSW 23:12:44 33° SSW
COBE Rocket 4.3 23:09:07 34° SSW 23:10:41 49° W 23:15:16 10° NNW
NOSS 0 Rocket 3.9 23:06:44 10° NNW 23:13:01 86° ENE 23:16:01 33° SE
USA 234 3.2 23:10:02 28° SE 23:13:46 70° SW 23:20:20 10° WNW
Cosmos 468 4.4 23:16:08 37° SSW 23:18:15 86° ESE 23:23:31 10° NNE
Cosmos 2297 Rocket 3.3 23:17:11 26° ESE 23:18:16 27° ESE 23:22:58 10° NE
Cosmos 2322 Rocket 4.4 23:18:46 10° WNW 23:20:43 12° W 23:22:40 10° WSW
Lacrosse 5 3.3 23:21:59 21° ESE 23:21:59 21° ESE 23:24:55 10° ENE
Cosmos 2237 Rocket 2.4 23:15:33 10° NNW 23:21:14 67° ENE 23:24:02 30° SE
Cosmos 2084 Rocket 3.5 23:18:32 10° NW 23:22:43 73° NE 23:24:07 41° ESE
NOSS 2-2 (E) 4.4 23:18:50 10° NW 23:23:55 75° NE 23:28:32 22° SE
Meteor 1-18 Rocket 4.2 23:18:43 10° NNW 23:24:38 90° ESE 23:26:56 39° S
Cosmos 1500 3.1 23:26:57 62° SE 23:27:18 67° E 23:31:09 10° NNE
Cosmos 1470 Rocket 4.0 23:29:03 40° ESE 23:29:45 44° E 23:33:52 10° NNE
Cosmos 2227 Rocket 3.4 23:28:53 24° ESE 23:29:59 26° ESE 23:34:34 10° NE
Sich 1 3.5 23:28:46 37° SW 23:30:11 56° WNW 23:34:28 10° N
Okean 1 3.4 23:27:10 10° NNW 23:31:10 62° W 23:31:46 54° SW
Meteor 1-25 Rocket 4.3 23:30:16 33° SSW 23:32:49 71° WNW 23:38:24 10° N
Cosmos 1633 Rocket 2.9 23:33:06 55° S 23:34:02 82° E 23:38:24 10° NNE
Cosmos 494 Rocket 3.9 23:33:17 39° SSW 23:35:13 86° WNW 23:40:24 10° NNE
Cosmos 1933 Rocket 4.5 23:35:34 32° ESE 23:36:26 35° E 23:40:30 10° NNE
Cosmos 1666 Rocket 3.6 23:37:07 50° SSW 23:38:13 77° W 23:42:42 10° N
Cosmos 1048 Rocket 4.3 23:39:39 29° SW 23:42:10 62° WNW 23:47:16 10° NNE
Cosmos 2219 Rocket 3.2 23:38:16 10° NW 23:43:09 31° WSW 23:44:40 27° SW
SL-08 R/B 4.4 23:45:16 36° SSW 23:48:00 86° W 23:54:12 10° N
NOSS 2-2 (C) 4.3 23:43:06 10° NW 23:48:09 86° NE 23:52:23 24° SE
SL-16 R/B 3.1 23:43:02 10° NNW 23:48:28 44° NE 23:52:42 16° ESE
PSLV R/B 4.3 23:46:29 10° NNE 23:51:06 47° E 23:52:12 40° SE
Cosmos 1269 Rocket 4.3 23:50:05 41° SSE 23:51:27 53° ESE 23:56:35 10° NNE
Resurs 1-4 Rocket 4.4 23:50:50 10° ENE 23:52:35 11° E 23:54:19 10° ESE
